Weather History for KMKL - January, 2014

Change the Weather History Date:

Thursday, January 2, 2014

  Actual Average Record
Temperature  
Mean Temperature 34 °F 38 °F  
Max Temperature 49 °F 48 °F 72 °F (2000)
Min Temperature 19 °F 29 °F 3 °F (2001)
Degree Days  
Heating Degree Days 31 27  
Month to date heating degree days 60 54  
Since 1 July heating degree days 1617 1472  
Cooling Degree Days 0 0  
Month to date cooling degree days 0 0  
Year to date cooling degree days 0 0  
Moisture  
Dew Point 27 °F    
Average Humidity 80    
Maximum Humidity 100    
Minimum Humidity 60    
Precipitation  
Precipitation 0.26 in 0.14 in 2.07 in (1951)
Month to date precipitation 0.27 0.28  
Year to date precipitation 0.27 0.28  
Snow  
Snow T in 0.00 in 1.00 in (1977)
Month to date snowfall T 0.1  
Since 1 July snowfall T 0.4  
Snow Depth 0.00 in    
Sea Level Pressure  
Sea Level Pressure 30.12 in    
Wind  
Wind Speed 14 mph (NW)    
Max Wind Speed 28 mph    
Max Gust Speed 32 mph    
Visibility 8 miles    
Events Rain , Snow    
T = Trace of Precipitation, MM = Missing Value Source: NWS Daily Summary

Daily Weather History Graph

Daily Weather History Graph

Search for Another Location

Airport or City:

Trip Planner

Search our weather history database for the weather conditions in past years. The results will help you decide how hot, cold, wet, or windy it might be!

Date:

Astronomy

Jan. 02, 2014 Rise Set
Actual Time 7:05 AM CST 4:54 PM CST
Civil Twilight 6:37 AM CST 5:22 PM CST
Nautical Twilight 6:05 AM CST 5:54 PM CST
Astronomical Twilight 5:34 AM CST 6:25 PM CST
Moon 7:50 AM CST (1/2) 6:46 PM CST (1/2)
Length of Visible Light 10h 45m
Length of Day
9h 48m
Waxing Crescent, 3% of the Moon is Illuminated
Jan 2
Waxing Crescent
Jan 7
First Quarter
Jan 15
Full
Jan 23
Last Quarter
Jan 30
New

Hourly Weather History & Observations

Time (CST) Temp. Windchill Dew Point Humidity Pressure Visibility Wind Dir Wind Speed Gust Speed Precip Events Conditions
12:53 AM 46.0 °F 41.9 °F 42.1 °F 86% 29.94 in 10.0 mi South 8.1 mph - N/A   Overcast
1:53 AM 48.0 °F - 44.1 °F 86% 29.93 in 10.0 mi SSW 8.1 mph - N/A   Overcast
2:07 AM 48.2 °F - 44.6 °F 87% 29.92 in 10.0 mi SW 10.4 mph - N/A   Overcast
2:15 AM 48.2 °F - 44.6 °F 87% 29.92 in 10.0 mi SSW 10.4 mph - N/A   Overcast
2:30 AM 48.2 °F - 44.6 °F 87% 29.92 in 9.0 mi SSW 8.1 mph - 0.00 in Rain Light Rain
2:53 AM 48.0 °F - 45.0 °F 89% 29.92 in 10.0 mi WSW 4.6 mph - 0.01 in Rain Light Rain
3:27 AM 48.2 °F - 46.4 °F 93% 29.90 in 5.0 mi WNW 3.5 mph - 0.03 in Rain Light Rain
3:53 AM 46.9 °F - 45.0 °F 93% 29.89 in 6.0 mi NNW 3.5 mph - 0.05 in Rain Light Rain
4:21 AM 46.4 °F - 44.6 °F 93% 29.90 in 5.0 mi Calm Calm - 0.03 in Rain Light Rain
4:30 AM 46.4 °F 44.3 °F 44.6 °F 93% 29.90 in 6.0 mi NNW 4.6 mph - 0.04 in Rain Light Rain
4:53 AM 45.0 °F 40.6 °F 44.1 °F 97% 29.90 in 5.0 mi NNW 8.1 mph - 0.07 in Rain Light Rain
5:53 AM 42.1 °F 33.6 °F 39.9 °F 92% 29.93 in 10.0 mi NNW 18.4 mph 26.5 mph 0.02 in Rain Light Rain
6:44 AM 33.8 °F 21.9 °F 30.2 °F 87% 29.99 in 1.8 mi NNW 21.9 mph 31.1 mph 0.10 in Snow Light Snow
6:53 AM 33.1 °F 23.0 °F 30.0 °F 89% 30.01 in 1.0 mi NNW 15.0 mph 29.9 mph 0.10 in Snow Light Snow
7:17 AM 32.0 °F 20.5 °F 30.2 °F 93% 30.02 in 3.0 mi NW 18.4 mph 25.3 mph 0.00 in Snow Light Snow
7:23 AM 32.0 °F 21.2 °F 28.4 °F 87% 30.02 in 2.5 mi NNW 16.1 mph 25.3 mph 0.00 in Snow Light Snow
7:53 AM 30.0 °F 17.9 °F 27.0 °F 88% 30.06 in 2.5 mi NNW 18.4 mph 27.6 mph 0.00 in Snow Light Snow
8:21 AM 28.4 °F 16.2 °F 26.6 °F 93% 30.08 in 1.5 mi NNW 17.3 mph - 0.00 in Snow Light Snow
8:25 AM 28.4 °F 15.8 °F 26.6 °F 93% 30.08 in 2.0 mi NNW 18.4 mph 25.3 mph 0.00 in Snow Light Snow
8:33 AM 28.4 °F 15.8 °F 24.8 °F 86% 30.09 in 5.0 mi NNW 18.4 mph 32.2 mph 0.00 in Snow Light Snow
8:53 AM 28.0 °F 14.9 °F 23.0 °F 81% 30.12 in 5.0 mi NNW 19.6 mph 32.2 mph 0.00 in   Haze
9:37 AM 28.4 °F 17.0 °F 24.8 °F 86% 30.15 in 10.0 mi NNW 15.0 mph 28.8 mph N/A   Overcast
9:53 AM 28.0 °F 15.7 °F 21.9 °F 78% 30.17 in 10.0 mi NNW 17.3 mph 29.9 mph N/A   Overcast
10:05 AM 28.4 °F 16.2 °F 23.0 °F 80% 30.17 in 10.0 mi NNW 17.3 mph 23.0 mph N/A   Overcast
10:12 AM 26.6 °F 14.7 °F 21.2 °F 80% 30.17 in 10.0 mi NNW 15.0 mph 27.6 mph N/A   Overcast
10:42 AM 26.6 °F 12.0 °F 21.2 °F 80% 30.18 in 10.0 mi NNW 23.0 mph 28.8 mph N/A   Overcast
10:53 AM 28.0 °F 16.5 °F 21.9 °F 78% 30.19 in 10.0 mi NNW 15.0 mph - N/A   Overcast
11:53 AM 28.0 °F 14.9 °F 21.9 °F 78% 30.20 in 10.0 mi NW 19.6 mph 25.3 mph N/A   Overcast
12:53 PM 28.9 °F 16.9 °F 21.0 °F 72% 30.20 in 10.0 mi NW 17.3 mph 23.0 mph 0.01 in   Overcast
1:53 PM 28.0 °F 15.7 °F 19.9 °F 72% 30.22 in 10.0 mi NW 17.3 mph 27.6 mph N/A   Overcast
2:53 PM 27.0 °F 13.2 °F 18.0 °F 69% 30.24 in 10.0 mi NNW 20.7 mph 26.5 mph N/A   Overcast
3:53 PM 27.0 °F 13.5 °F 17.1 °F 66% 30.28 in 10.0 mi NNW 19.6 mph 25.3 mph N/A   Overcast
4:06 PM 26.6 °F 14.3 °F 17.6 °F 69% 30.28 in 10.0 mi NW 16.1 mph 24.2 mph N/A   Overcast
4:53 PM 26.1 °F 15.0 °F 17.1 °F 69% 30.30 in 10.0 mi NNW 12.7 mph - N/A   Overcast
5:53 PM 26.1 °F 13.6 °F 15.1 °F 63% 30.33 in 10.0 mi North 16.1 mph - N/A   Mostly Cloudy
6:53 PM 24.1 °F 11.0 °F 12.9 °F 62% 30.35 in 10.0 mi North 16.1 mph 20.7 mph N/A   Clear
7:53 PM 23.0 °F 11.7 °F 12.0 °F 63% 30.39 in 10.0 mi North 11.5 mph - N/A   Clear
8:53 PM 21.0 °F 9.9 °F 10.9 °F 65% 30.41 in 10.0 mi North 10.4 mph - N/A   Clear
9:53 PM 21.0 °F 9.3 °F 10.0 °F 63% 30.43 in 10.0 mi North 11.5 mph - N/A   Clear
10:53 PM 19.9 °F 9.3 °F 10.9 °F 68% 30.45 in 10.0 mi North 9.2 mph - N/A   Clear
11:53 PM 19.0 °F 6.8 °F 10.0 °F 68% 30.46 in 10.0 mi North 11.5 mph - N/A   Clear